| time (UTC) | temp F | wind direction | speed knots | gust knots | rain 1hr in | rain 24hr in | rain mn in | humidity % | barometer mb |
| 20260503200019 | 80 | 113 | 0.0 | 4.3 | 0.00 | 0.00 | 0.00 | 44 | 1013.1 |
| 20260503194512 | 79 | 259 | 0.9 | 2.6 | 0.00 | 0.00 | 0.00 | 46 | 1013.2 |
| 20260503193019 | 78 | 257 | 0.0 | 4.3 | 0.00 | 0.00 | 0.00 | 48 | 1013.3 |
| 20260503191504 | 77 | 4 | 0.0 | 3.5 | 0.00 | 0.00 | 0.00 | 49 | 1013.6 |
| 20260503190106 | 75 | 38 | 0.0 | 2.6 | 0.00 | 0.00 | 0.00 | 50 | 1013.7 |
| 20260503184556 | 74 | 256 | 0.0 | 3.5 | 0.00 | 0.00 | 0.00 | 53 | 1014.0 |
| 20260503183108 | 73 | 220 | 0.0 | 4.3 | 0.00 | 0.00 | 0.00 | 55 | 1014.2 |
| 20260503181617 | 72 | 71 | 0.9 | 3.5 | 0.00 | 0.00 | 0.00 | 55 | 1014.3 |
| 20260503180147 | 71 | 110 | 0.0 | 4.3 | 0.00 | 0.00 | 0.00 | 57 | 1014.4 |
| 20260503174543 | 71 | 78 | 0.0 | 1.7 | 0.00 | 0.00 | 0.00 | 58 | 1014.5 |
| 20260503173045 | 70 | 56 | 0.0 | 2.6 | 0.00 | 0.00 | 0.00 | 61 | 1014.6 |
| 20260503171537 | 69 | 51 | 0.9 | 4.3 | 0.00 | 0.00 | 0.00 | 62 | 1014.7 |
| 20260503100108 | 60 | 82 | 1.7 | 2.6 | 0.00 | 0.00 | 0.00 | 79 | 1015.0 |
| 20260503081544 | 58 | 358 | 0.0 | 0.9 | 0.00 | 0.02 | 0.00 | 88 | 1015.4 |
| 20260503071538 | 59 | 343 | 0.0 | 1.7 | 0.00 | 0.02 | 0.00 | 85 | 1015.5 |
| 20260503054539 | 62 | 119 | 0.0 | 2.6 | 0.00 | 0.02 | 0.02 | 78 | 1015.3 |
| 20260503053032 | 62 | 103 | 0.0 | 0.9 | 0.00 | 0.02 | 0.02 | 78 | 1015.3 |
| 20260503051631 | 62 | 16 | 0.9 | 4.3 | 0.00 | 0.02 | 0.02 | 78 | 1015.2 |
| 20260503050032 | 63 | 282 | 0.0 | 0.9 | 0.00 | 0.02 | 0.02 | 77 | 1015.7 |
| 20260503044538 | 63 | 57 | 0.0 | 2.6 | 0.00 | 0.02 | 0.02 | 76 | 1015.8 |
| 20260503043030 | 62 | 33 | 0.0 | 1.7 | 0.00 | 0.02 | 0.02 | 79 | 1015.5 |
| 20260503041530 | 61 | 34 | 0.0 | 0.9 | 0.00 | 0.02 | 0.02 | 80 | 1015.5 |
| 20260503040031 | 62 | 34 | 0.0 | 1.7 | 0.00 | 0.02 | 0.02 | 80 | 1015.6 |
| 20260503034529 | 62 | 41 | 0.0 | 0.9 | 0.00 | 0.02 | 0.02 | 79 | 1015.4 |
| 20260503033033 | 63 | 327 | 0.0 | 0.9 | 0.00 | 0.02 | 0.02 | 78 | 1015.3 |
| 20260503031528 | 63 | 318 | 0.0 | 0.9 | 0.00 | 0.02 | 0.02 | 76 | 1015.1 |
| 20260503030027 | 64 | 310 | 0.0 | 1.7 | 0.00 | 0.02 | 0.02 | 74 | 1015.3 |
| 20260503024527 | 65 | 70 | 0.0 | 2.6 | 0.00 | 0.02 | 0.02 | 73 | 1015.4 |
| 20260503023027 | 66 | 117 | 0.0 | 0.9 | 0.00 | 0.02 | 0.02 | 71 | 1015.5 |
| 20260503021525 | 67 | 121 | 0.0 | 1.7 | 0.00 | 0.02 | 0.02 | 69 | 1015.5 |
| 20260503020025 | 70 | 262 | 0.0 | 0.9 | 0.00 | 0.02 | 0.02 | 66 | 1015.0 |
| 20260503014524 | 70 | 262 | 0.0 | 1.7 | 0.00 | 0.02 | 0.02 | 64 | 1014.6 |
| 20260503013031 | 72 | 208 | 0.0 | 0.9 | 0.00 | 0.02 | 0.02 | 60 | 1014.4 |
| 20260503011527 | 72 | 175 | 0.0 | 0.0 | 0.00 | 0.02 | 0.02 | 61 | 1014.4 |
| 20260503010023 | 73 | 278 | 0.0 | 0.9 | 0.00 | 0.02 | 0.02 | 58 | 1014.4 |
| 20260503004522 | 73 | 233 | 0.0 | 1.7 | 0.00 | 0.02 | 0.02 | 59 | 1014.4 |
| 20260503003022 | 72 | 242 | 0.0 | 3.5 | 0.00 | 0.02 | 0.02 | 58 | 1014.4 |
| 20260503001520 | 74 | 335 | 0.0 | 1.7 | 0.00 | 0.02 | 0.02 | 57 | 1014.4 |
| 20260503000019 | 73 | 255 | 0.9 | 2.6 | 0.00 | 0.02 | 0.02 | 56 | 1014.5 |
| 20260502234514 | 72 | 278 | 0.0 | 3.5 | 0.00 | 0.02 | 0.02 | 57 | 1014.6 |
| 20260502233016 | 72 | 253 | 0.9 | 3.5 | 0.00 | 0.02 | 0.02 | 57 | 1014.8 |
| 20260502231512 | 70 | 233 | 0.0 | 3.5 | 0.00 | 0.02 | 0.02 | 60 | 1015.0 |
| 20260502230004 | 69 | 264 | 0.9 | 3.5 | 0.00 | 0.02 | 0.02 | 62 | 1015.1 |
| 20260502224501 | 69 | 257 | 0.9 | 4.3 | 0.00 | 0.02 | 0.02 | 63 | 1015.4 |
| 20260502223058 | 68 | 36 | 0.0 | 2.6 | 0.00 | 0.02 | 0.02 | 65 | 1015.6 |
| 20260502221554 | 67 | 27 | 0.0 | 3.5 | 0.00 | 0.02 | 0.02 | 66 | 1015.7 |
| 20260502220052 | 67 | 27 | 0.9 | 3.5 | 0.00 | 0.02 | 0.02 | 65 | 1016.1 |
| 20260502214605 | 67 | 260 | 0.9 | 5.2 | 0.00 | 0.02 | 0.02 | 66 | 1016.2 |
| 20260502213047 | 66 | 264 | 0.9 | 3.5 | 0.00 | 0.02 | 0.02 | 67 | 1016.4 |
| 20260502211549 | 65 | 235 | 0.0 | 4.3 | 0.00 | 0.02 | 0.02 | 69 | 1016.6 |
| 20260502210051 | 65 | 94 | 0.0 | 1.7 | 0.00 | 0.02 | 0.02 | 69 | 1016.8 |
| 20260502204541 | 64 | 196 | 0.0 | 0.9 | 0.00 | 0.02 | 0.02 | 71 | 1017.2 |
| 20260502203047 | 63 | 253 | 0.0 | 1.7 | 0.00 | 0.02 | 0.02 | 75 | 1017.3 |
| 20260502201530 | 61 | 266 | 0.0 | 2.6 | 0.00 | 0.02 | 0.02 | 77 | 1017.4 |